Track OPS 0054 (DMSP 5A F1) now! 10-day predictions OPS 0054 (DMSP 5A F1) is classified as:
1 04331U 70012A 21027.49825319 .00000027 00000-0 26600-4 0 9991 2 04331 98.8280 124.3505 0058132 329.6327 30.1493 14.32787578655412